Regional Weather Roundup
Issued by NWS

Home | Current Version | Previous Version | Graphics & Text | Print | Product List | Glossary On
Versions: 1 2 3 4 5 6 7 8 9 10 11 12 13 14 15 16 17 18 19 20 21 22 23 24 25 26 27 28 29 30 31 32 33 34 35 36 37 38 39 40 41 42 43 44 45 46 47 48 49 50
000
ASUS43 KBIS 021110
RWRND

NORTH DAKOTA REGIONAL WEATHER ROUNDUP
NATIONAL WEATHER SERVICE BISMARCK ND
500 AM CST FRI DEC 02 2016

NOTE: "FAIR" INDICATES FEW OR NO CLOUDS BELOW 12,000 FEET WITH NO
SIGNIFICANT WEATHER AND/OR OBSTRUCTIONS TO VISIBILITY.


NDZ001>003-009>011-017-021200-
NORTHWEST NORTH DAKOTA

CITY           SKY/WX    TMP DP  RH WIND       PRES   REMARKS
WILLISTON      CLOUDY    28  23  81 S3        30.14R
MINOT          CLOUDY    27  19  72 S6        30.16R
MINOT AFB      CLOUDY    26  19  74 S8        30.16R WCI  17
$$

NDZ018>021-031>035-040>046-021200-
SOUTHWEST NORTH DAKOTA

CITY           SKY/WX    TMP DP  RH WIND       PRES   REMARKS
BISMARCK       CLOUDY    25  21  85 CALM      30.19R
DICKINSON      CLOUDY    22  19  89 S5        30.10R WCI  16
GARRISON         N/A     24  20  84 E3        30.16R
HETTINGER ARPT CLOUDY    24  20  84 S3        30.12R
$$

NDZ004>008-012>016-024-026-027-054-021200-
NORTHEAST NORTH DAKOTA

CITY           SKY/WX    TMP DP  RH WIND       PRES   REMARKS
GRAND FORKS    CLOUDY    29  21  72 N9        30.18S
GRND FRKS AFB  CLOUDY    28  22  79 NE9       30.19R WCI  19
DEVILS LAKE    CLOUDY    28  22  78 N6        30.17R
$$

NDZ022-023-025-028>030-036>039-047>053-021200-
SOUTHEAST NORTH DAKOTA

CITY           SKY/WX    TMP DP  RH WIND       PRES   REMARKS
FARGO          CLOUDY    29  22  75 N14       30.18R WCI  18
JAMESTOWN      CLOUDY    26  20  77 N5        30.17R
$$




USA.gov is the U.S. government's official web portal to all federal, state and local government web resources and services.